owner,sensor,date,latitude,longitude,vertical_datum,sea_water_temperature,qcFlag 
WAVCIS,ioos:station:WAVCIS:CSI16:1,2012-02-01T00:00:00Z,29.4012,-89.0355,10.0,17.825,11111222 
WAVCIS,ioos:station:WAVCIS:CSI16:1,2012-02-01T00:15:00Z,29.4012,-89.0355,10.0,17.937,11111222 
WAVCIS,ioos:station:WAVCIS:CSI16:1,2012-02-01T00:30:00Z,29.4012,-89.0355,10.0,17.883,11111222 
WAVCIS,ioos:station:WAVCIS:CSI16:1,2012-02-01T00:45:00Z,29.4012,-89.0355,10.0,17.815,11111222 
WAVCIS,ioos:station:WAVCIS:CSI16:1,2012-02-01T01:00:00Z,29.4012,-89.0355,10.0,17.764,11111222 
WAVCIS,ioos:station:WAVCIS:CSI16:1,2012-02-01T01:15:00Z,29.4012,-89.0355,10.0,17.745,11111222 
WAVCIS,ioos:station:WAVCIS:CSI16:1,2012-02-01T01:30:00Z,29.4012,-89.0355,10.0,17.717,11111222 
WAVCIS,ioos:station:WAVCIS:CSI16:1,2012-02-01T01:45:00Z,29.4012,-89.0355,10.0,17.705,11111222 
WAVCIS,ioos:station:WAVCIS:CSI16:1,2012-02-01T02:00:00Z,29.4012,-89.0355,10.0,17.629,11111222 
WAVCIS,ioos:station:WAVCIS:CSI16:1,2012-02-01T02:15:00Z,29.4012,-89.0355,10.0,17.653,11111222 
WAVCIS,ioos:station:WAVCIS:CSI16:1,2012-02-01T02:30:00Z,29.4012,-89.0355,10.0,17.587,11111222 
WAVCIS,ioos:station:WAVCIS:CSI16:1,2012-02-01T02:45:00Z,29.4012,-89.0355,10.0,17.534,11111222 
WAVCIS,ioos:station:WAVCIS:CSI16:1,2012-02-01T03:00:00Z,29.4012,-89.0355,10.0,17.546,11111222 
WAVCIS,ioos:station:WAVCIS:CSI16:1,2012-02-01T03:15:00Z,29.4012,-89.0355,10.0,17.384,11111222 
WAVCIS,ioos:station:WAVCIS:CSI16:1,2012-02-01T03:30:00Z,29.4012,-89.0355,10.0,17.402,11111222 
WAVCIS,ioos:station:WAVCIS:CSI16:1,2012-02-01T03:45:00Z,29.4012,-89.0355,10.0,17.491,11111222 
WAVCIS,ioos:station:WAVCIS:CSI16:1,2012-02-01T04:00:00Z,29.4012,-89.0355,10.0,17.418,11111222 
WAVCIS,ioos:station:WAVCIS:CSI16:1,2012-02-01T04:15:00Z,29.4012,-89.0355,10.0,17.433,11111222 
WAVCIS,ioos:station:WAVCIS:CSI16:1,2012-02-01T04:30:00Z,29.4012,-89.0355,10.0,17.218,11111222 
WAVCIS,ioos:station:WAVCIS:CSI16:1,2012-02-01T04:45:00Z,29.4012,-89.0355,10.0,17.334,11111222 
WAVCIS,ioos:station:WAVCIS:CSI16:1,2012-02-01T05:00:00Z,29.4012,-89.0355,10.0,17.05,11111222 
WAVCIS,ioos:station:WAVCIS:CSI16:1,2012-02-01T05:15:00Z,29.4012,-89.0355,10.0,17.02,11111222 
WAVCIS,ioos:station:WAVCIS:CSI16:1,2012-02-01T05:30:00Z,29.4012,-89.0355,10.0,16.903,11111222 
WAVCIS,ioos:station:WAVCIS:CSI16:1,2012-02-01T05:45:00Z,29.4012,-89.0355,10.0,16.862,11111222 
WAVCIS,ioos:station:WAVCIS:CSI16:1,2012-02-01T06:00:00Z,29.4012,-89.0355,10.0,16.912,11111222 
WAVCIS,ioos:station:WAVCIS:CSI16:1,2012-02-01T06:15:00Z,29.4012,-89.0355,10.0,16.492,11111222 
WAVCIS,ioos:station:WAVCIS:CSI16:1,2012-02-01T06:30:00Z,29.4012,-89.0355,10.0,16.372,11111222 
WAVCIS,ioos:station:WAVCIS:CSI16:1,2012-02-01T06:45:00Z,29.4012,-89.0355,10.0,16.375,11111222 
WAVCIS,ioos:station:WAVCIS:CSI16:1,2012-02-01T07:00:00Z,29.4012,-89.0355,10.0,16.281,11111222 
WAVCIS,ioos:station:WAVCIS:CSI16:1,2012-02-01T07:15:00Z,29.4012,-89.0355,10.0,16.197,11111222 
WAVCIS,ioos:station:WAVCIS:CSI16:1,2012-02-01T07:30:00Z,29.4012,-89.0355,10.0,16.347,11111222 
WAVCIS,ioos:station:WAVCIS:CSI16:1,2012-02-01T07:45:00Z,29.4012,-89.0355,10.0,16.354,11111222 
WAVCIS,ioos:station:WAVCIS:CSI16:1,2012-02-01T08:00:00Z,29.4012,-89.0355,10.0,16.387,11111222 
WAVCIS,ioos:station:WAVCIS:CSI16:1,2012-02-01T08:15:00Z,29.4012,-89.0355,10.0,16.444,11111222 
WAVCIS,ioos:station:WAVCIS:CSI16:1,2012-02-01T08:30:00Z,29.4012,-89.0355,10.0,16.66,11111222 
WAVCIS,ioos:station:WAVCIS:CSI16:1,2012-02-01T08:45:00Z,29.4012,-89.0355,10.0,16.668,11111222 
WAVCIS,ioos:station:WAVCIS:CSI16:1,2012-02-01T09:00:00Z,29.4012,-89.0355,10.0,16.724,11111222 
WAVCIS,ioos:station:WAVCIS:CSI16:1,2012-02-01T09:15:00Z,29.4012,-89.0355,10.0,16.748,11111222 
WAVCIS,ioos:station:WAVCIS:CSI16:1,2012-02-01T09:30:00Z,29.4012,-89.0355,10.0,16.773,11111222 
WAVCIS,ioos:station:WAVCIS:CSI16:1,2012-02-01T09:45:00Z,29.4012,-89.0355,10.0,16.775,11111222 
WAVCIS,ioos:station:WAVCIS:CSI16:1,2012-02-01T10:00:00Z,29.4012,-89.0355,10.0,16.814,11111222 
WAVCIS,ioos:station:WAVCIS:CSI16:1,2012-02-01T10:15:00Z,29.4012,-89.0355,10.0,16.812,11111222 
WAVCIS,ioos:station:WAVCIS:CSI16:1,2012-02-01T10:30:00Z,29.4012,-89.0355,10.0,16.818,11111222 
WAVCIS,ioos:station:WAVCIS:CSI16:1,2012-02-01T10:45:00Z,29.4012,-89.0355,10.0,16.872,11111222 
WAVCIS,ioos:station:WAVCIS:CSI16:1,2012-02-01T11:00:00Z,29.4012,-89.0355,10.0,16.903,11111222 
WAVCIS,ioos:station:WAVCIS:CSI16:1,2012-02-01T11:15:00Z,29.4012,-89.0355,10.0,16.913,11111222 
WAVCIS,ioos:station:WAVCIS:CSI16:1,2012-02-01T11:30:00Z,29.4012,-89.0355,10.0,16.952,11111222 
WAVCIS,ioos:station:WAVCIS:CSI16:1,2012-02-01T11:45:00Z,29.4012,-89.0355,10.0,16.985,11111222 
WAVCIS,ioos:station:WAVCIS:CSI16:1,2012-02-01T12:00:00Z,29.4012,-89.0355,10.0,16.981,11111222 
WAVCIS,ioos:station:WAVCIS:CSI16:1,2012-02-01T12:15:00Z,29.4012,-89.0355,10.0,16.994,11111222 
WAVCIS,ioos:station:WAVCIS:CSI16:1,2012-02-01T12:30:00Z,29.4012,-89.0355,10.0,17.002,11111222 
WAVCIS,ioos:station:WAVCIS:CSI16:1,2012-02-01T12:45:00Z,29.4012,-89.0355,10.0,16.934,11111222 
WAVCIS,ioos:station:WAVCIS:CSI16:1,2012-02-01T13:00:00Z,29.4012,-89.0355,10.0,17.043,11111222 
WAVCIS,ioos:station:WAVCIS:CSI16:1,2012-02-01T13:15:00Z,29.4012,-89.0355,10.0,17.063,11111222 
WAVCIS,ioos:station:WAVCIS:CSI16:1,2012-02-01T13:30:00Z,29.4012,-89.0355,10.0,17.188,11111222 
WAVCIS,ioos:station:WAVCIS:CSI16:1,2012-02-01T13:45:00Z,29.4012,-89.0355,10.0,17.239,11111222 
WAVCIS,ioos:station:WAVCIS:CSI16:1,2012-02-01T14:00:00Z,29.4012,-89.0355,10.0,17.296,11111222 
WAVCIS,ioos:station:WAVCIS:CSI16:1,2012-02-01T14:15:00Z,29.4012,-89.0355,10.0,17.317,11111222 
WAVCIS,ioos:station:WAVCIS:CSI16:1,2012-02-01T14:30:00Z,29.4012,-89.0355,10.0,17.356,11111222 
WAVCIS,ioos:station:WAVCIS:CSI16:1,2012-02-01T14:45:00Z,29.4012,-89.0355,10.0,17.321,11111222 
WAVCIS,ioos:station:WAVCIS:CSI16:1,2012-02-01T15:00:00Z,29.4012,-89.0355,10.0,17.386,11111222 
WAVCIS,ioos:station:WAVCIS:CSI16:1,2012-02-01T15:15:00Z,29.4012,-89.0355,10.0,17.415,11111222 
WAVCIS,ioos:station:WAVCIS:CSI16:1,2012-02-01T15:30:00Z,29.4012,-89.0355,10.0,17.435,11111222 
WAVCIS,ioos:station:WAVCIS:CSI16:1,2012-02-01T15:45:00Z,29.4012,-89.0355,10.0,17.446,11111222 
WAVCIS,ioos:station:WAVCIS:CSI16:1,2012-02-01T16:00:00Z,29.4012,-89.0355,10.0,17.465,11111222 
WAVCIS,ioos:station:WAVCIS:CSI16:1,2012-02-01T16:15:00Z,29.4012,-89.0355,10.0,17.475,11111222 
WAVCIS,ioos:station:WAVCIS:CSI16:1,2012-02-01T16:30:00Z,29.4012,-89.0355,10.0,17.491,11111222 
WAVCIS,ioos:station:WAVCIS:CSI16:1,2012-02-01T16:45:00Z,29.4012,-89.0355,10.0,17.498,11111222 
WAVCIS,ioos:station:WAVCIS:CSI16:1,2012-02-01T17:00:00Z,29.4012,-89.0355,10.0,17.508,11111222 
WAVCIS,ioos:station:WAVCIS:CSI16:1,2012-02-01T17:15:00Z,29.4012,-89.0355,10.0,17.522,11111222 
WAVCIS,ioos:station:WAVCIS:CSI16:1,2012-02-01T17:30:00Z,29.4012,-89.0355,10.0,17.535,11111222 
WAVCIS,ioos:station:WAVCIS:CSI16:1,2012-02-01T17:45:00Z,29.4012,-89.0355,10.0,17.548,11111222 
WAVCIS,ioos:station:WAVCIS:CSI16:1,2012-02-01T18:00:00Z,29.4012,-89.0355,10.0,17.558,11111222 
WAVCIS,ioos:station:WAVCIS:CSI16:1,2012-02-01T18:15:00Z,29.4012,-89.0355,10.0,17.563,11111222 
WAVCIS,ioos:station:WAVCIS:CSI16:1,2012-02-01T18:30:00Z,29.4012,-89.0355,10.0,17.566,11111222 
WAVCIS,ioos:station:WAVCIS:CSI16:1,2012-02-01T18:45:00Z,29.4012,-89.0355,10.0,17.575,11111222 
WAVCIS,ioos:station:WAVCIS:CSI16:1,2012-02-01T19:00:00Z,29.4012,-89.0355,10.0,17.573,11111222 
WAVCIS,ioos:station:WAVCIS:CSI16:1,2012-02-01T19:15:00Z,29.4012,-89.0355,10.0,17.573,11111222 
WAVCIS,ioos:station:WAVCIS:CSI16:1,2012-02-01T19:30:00Z,29.4012,-89.0355,10.0,17.584,11111222 
WAVCIS,ioos:station:WAVCIS:CSI16:1,2012-02-01T19:45:00Z,29.4012,-89.0355,10.0,17.571,11111222 
WAVCIS,ioos:station:WAVCIS:CSI16:1,2012-02-01T20:00:00Z,29.4012,-89.0355,10.0,17.563,11111222 
WAVCIS,ioos:station:WAVCIS:CSI16:1,2012-02-01T20:15:00Z,29.4012,-89.0355,10.0,17.56,11111222 
WAVCIS,ioos:station:WAVCIS:CSI16:1,2012-02-01T20:30:00Z,29.4012,-89.0355,10.0,17.563,11111222 
WAVCIS,ioos:station:WAVCIS:CSI16:1,2012-02-01T20:45:00Z,29.4012,-89.0355,10.0,17.58,11111222 
WAVCIS,ioos:station:WAVCIS:CSI16:1,2012-02-01T21:00:00Z,29.4012,-89.0355,10.0,17.6,11111222 
WAVCIS,ioos:station:WAVCIS:CSI16:1,2012-02-01T21:15:00Z,29.4012,-89.0355,10.0,17.574,11111222 
WAVCIS,ioos:station:WAVCIS:CSI16:1,2012-02-01T21:30:00Z,29.4012,-89.0355,10.0,17.579,11111222 
WAVCIS,ioos:station:WAVCIS:CSI16:1,2012-02-01T21:45:00Z,29.4012,-89.0355,10.0,17.573,11111222 
WAVCIS,ioos:station:WAVCIS:CSI16:1,2012-02-01T22:00:00Z,29.4012,-89.0355,10.0,17.52,11111222 
WAVCIS,ioos:station:WAVCIS:CSI16:1,2012-02-01T22:15:00Z,29.4012,-89.0355,10.0,17.654,11111222 
WAVCIS,ioos:station:WAVCIS:CSI16:1,2012-02-01T22:30:00Z,29.4012,-89.0355,10.0,17.619,11111222 
WAVCIS,ioos:station:WAVCIS:CSI16:1,2012-02-01T22:45:00Z,29.4012,-89.0355,10.0,17.653,11111222 
WAVCIS,ioos:station:WAVCIS:CSI16:1,2012-02-01T23:00:00Z,29.4012,-89.0355,10.0,17.609,11111222 
WAVCIS,ioos:station:WAVCIS:CSI16:1,2012-02-01T23:15:00Z,29.4012,-89.0355,10.0,17.568,11111222 
WAVCIS,ioos:station:WAVCIS:CSI16:1,2012-02-01T23:30:00Z,29.4012,-89.0355,10.0,17.572,11111222 
WAVCIS,ioos:station:WAVCIS:CSI16:1,2012-02-01T23:45:00Z,29.4012,-89.0355,10.0,17.554,11111222 
WAVCIS,ioos:station:WAVCIS:CSI16:1,2012-02-02T00:00:00Z,29.4012,-89.0355,10.0,17.568,11111222 
WAVCIS,ioos:station:WAVCIS:CSI16:1,2012-02-02T00:15:00Z,29.4012,-89.0355,10.0,17.532,11111222 
WAVCIS,ioos:station:WAVCIS:CSI16:1,2012-02-02T00:30:00Z,29.4012,-89.0355,10.0,17.494,11111222 
WAVCIS,ioos:station:WAVCIS:CSI16:1,2012-02-02T00:45:00Z,29.4012,-89.0355,10.0,17.554,11111222 
WAVCIS,ioos:station:WAVCIS:CSI16:1,2012-02-02T01:00:00Z,29.4012,-89.0355,10.0,17.59,11111222 
WAVCIS,ioos:station:WAVCIS:CSI16:1,2012-02-02T01:15:00Z,29.4012,-89.0355,10.0,17.586,11111222 
WAVCIS,ioos:station:WAVCIS:CSI16:1,2012-02-02T01:30:00Z,29.4012,-89.0355,10.0,17.556,11111222 
WAVCIS,ioos:station:WAVCIS:CSI16:1,2012-02-02T01:45:00Z,29.4012,-89.0355,10.0,17.306,11111222 
WAVCIS,ioos:station:WAVCIS:CSI16:1,2012-02-02T02:00:00Z,29.4012,-89.0355,10.0,17.164,11111222 
WAVCIS,ioos:station:WAVCIS:CSI16:1,2012-02-02T02:15:00Z,29.4012,-89.0355,10.0,17.218,11111222 
WAVCIS,ioos:station:WAVCIS:CSI16:1,2012-02-02T02:30:00Z,29.4012,-89.0355,10.0,17.309,11111222 
WAVCIS,ioos:station:WAVCIS:CSI16:1,2012-02-02T02:45:00Z,29.4012,-89.0355,10.0,17.465,11111222 
WAVCIS,ioos:station:WAVCIS:CSI16:1,2012-02-02T03:00:00Z,29.4012,-89.0355,10.0,17.125,11111222 
WAVCIS,ioos:station:WAVCIS:CSI16:1,2012-02-02T03:15:00Z,29.4012,-89.0355,10.0,16.995,11111222 
WAVCIS,ioos:station:WAVCIS:CSI16:1,2012-02-02T03:30:00Z,29.4012,-89.0355,10.0,17.515,11111222 
WAVCIS,ioos:station:WAVCIS:CSI16:1,2012-02-02T03:45:00Z,29.4012,-89.0355,10.0,17.248,11111222 
WAVCIS,ioos:station:WAVCIS:CSI16:1,2012-02-02T04:00:00Z,29.4012,-89.0355,10.0,17.308,11111222 
WAVCIS,ioos:station:WAVCIS:CSI16:1,2012-02-02T04:15:00Z,29.4012,-89.0355,10.0,17.128,11111222 
WAVCIS,ioos:station:WAVCIS:CSI16:1,2012-02-02T04:30:00Z,29.4012,-89.0355,10.0,17.125,11111222 
WAVCIS,ioos:station:WAVCIS:CSI16:1,2012-02-02T04:45:00Z,29.4012,-89.0355,10.0,16.998,11111222 
WAVCIS,ioos:station:WAVCIS:CSI16:1,2012-02-02T05:00:00Z,29.4012,-89.0355,10.0,16.964,11111222 
WAVCIS,ioos:station:WAVCIS:CSI16:1,2012-02-02T05:15:00Z,29.4012,-89.0355,10.0,17.062,11111222 
WAVCIS,ioos:station:WAVCIS:CSI16:1,2012-02-02T05:30:00Z,29.4012,-89.0355,10.0,17.11,11111222 
WAVCIS,ioos:station:WAVCIS:CSI16:1,2012-02-02T05:45:00Z,29.4012,-89.0355,10.0,17.074,11111222 
WAVCIS,ioos:station:WAVCIS:CSI16:1,2012-02-02T06:00:00Z,29.4012,-89.0355,10.0,17.036,11111222 
WAVCIS,ioos:station:WAVCIS:CSI16:1,2012-02-02T06:15:00Z,29.4012,-89.0355,10.0,17.016,11111222 
WAVCIS,ioos:station:WAVCIS:CSI16:1,2012-02-02T06:30:00Z,29.4012,-89.0355,10.0,17.013,11111222 
WAVCIS,ioos:station:WAVCIS:CSI16:1,2012-02-02T06:45:00Z,29.4012,-89.0355,10.0,17.017,11111222 
WAVCIS,ioos:station:WAVCIS:CSI16:1,2012-02-02T07:00:00Z,29.4012,-89.0355,10.0,17.024,11111222 
WAVCIS,ioos:station:WAVCIS:CSI16:1,2012-02-02T07:15:00Z,29.4012,-89.0355,10.0,17.001,11111222 
WAVCIS,ioos:station:WAVCIS:CSI16:1,2012-02-02T07:30:00Z,29.4012,-89.0355,10.0,17.022,11111222 
WAVCIS,ioos:station:WAVCIS:CSI16:1,2012-02-02T07:45:00Z,29.4012,-89.0355,10.0,17.003,11111222 
WAVCIS,ioos:station:WAVCIS:CSI16:1,2012-02-02T08:00:00Z,29.4012,-89.0355,10.0,17.017,11111222 
WAVCIS,ioos:station:WAVCIS:CSI16:1,2012-02-02T08:15:00Z,29.4012,-89.0355,10.0,17.042,11111222 
WAVCIS,ioos:station:WAVCIS:CSI16:1,2012-02-02T08:30:00Z,29.4012,-89.0355,10.0,17.058,11111222 
WAVCIS,ioos:station:WAVCIS:CSI16:1,2012-02-02T08:45:00Z,29.4012,-89.0355,10.0,17.033,11111222 
WAVCIS,ioos:station:WAVCIS:CSI16:1,2012-02-02T09:00:00Z,29.4012,-89.0355,10.0,17.028,11111222 
WAVCIS,ioos:station:WAVCIS:CSI16:1,2012-02-02T09:15:00Z,29.4012,-89.0355,10.0,17.021,11111222 
WAVCIS,ioos:station:WAVCIS:CSI16:1,2012-02-02T09:30:00Z,29.4012,-89.0355,10.0,17.018,11111222 
WAVCIS,ioos:station:WAVCIS:CSI16:1,2012-02-02T09:45:00Z,29.4012,-89.0355,10.0,17.054,11111222 
WAVCIS,ioos:station:WAVCIS:CSI16:1,2012-02-02T10:00:00Z,29.4012,-89.0355,10.0,17.071,11111222 
WAVCIS,ioos:station:WAVCIS:CSI16:1,2012-02-02T10:15:00Z,29.4012,-89.0355,10.0,17.087,11111222 
WAVCIS,ioos:station:WAVCIS:CSI16:1,2012-02-02T10:30:00Z,29.4012,-89.0355,10.0,17.161,11111222 
WAVCIS,ioos:station:WAVCIS:CSI16:1,2012-02-02T10:45:00Z,29.4012,-89.0355,10.0,17.173,11111222 
WAVCIS,ioos:station:WAVCIS:CSI16:1,2012-02-02T11:00:00Z,29.4012,-89.0355,10.0,17.212,11111222 
WAVCIS,ioos:station:WAVCIS:CSI16:1,2012-02-02T11:15:00Z,29.4012,-89.0355,10.0,17.219,11111222 
WAVCIS,ioos:station:WAVCIS:CSI16:1,2012-02-02T11:30:00Z,29.4012,-89.0355,10.0,17.278,11111222 
WAVCIS,ioos:station:WAVCIS:CSI16:1,2012-02-02T11:45:00Z,29.4012,-89.0355,10.0,17.3,11111222 
WAVCIS,ioos:station:WAVCIS:CSI16:1,2012-02-02T12:00:00Z,29.4012,-89.0355,10.0,17.353,11111222 
WAVCIS,ioos:station:WAVCIS:CSI16:1,2012-02-02T12:15:00Z,29.4012,-89.0355,10.0,17.362,11111222 
WAVCIS,ioos:station:WAVCIS:CSI16:1,2012-02-02T12:30:00Z,29.4012,-89.0355,10.0,17.354,11111222 
WAVCIS,ioos:station:WAVCIS:CSI16:1,2012-02-02T12:45:00Z,29.4012,-89.0355,10.0,17.367,11111222 
WAVCIS,ioos:station:WAVCIS:CSI16:1,2012-02-02T13:00:00Z,29.4012,-89.0355,10.0,17.392,11111222 
WAVCIS,ioos:station:WAVCIS:CSI16:1,2012-02-02T13:15:00Z,29.4012,-89.0355,10.0,17.359,11111222 
WAVCIS,ioos:station:WAVCIS:CSI16:1,2012-02-02T13:30:00Z,29.4012,-89.0355,10.0,17.453,11111222 
WAVCIS,ioos:station:WAVCIS:CSI16:1,2012-02-02T13:45:00Z,29.4012,-89.0355,10.0,17.494,11111222 
WAVCIS,ioos:station:WAVCIS:CSI16:1,2012-02-02T14:00:00Z,29.4012,-89.0355,10.0,17.525,11111222 
WAVCIS,ioos:station:WAVCIS:CSI16:1,2012-02-02T14:15:00Z,29.4012,-89.0355,10.0,17.543,11111222 
WAVCIS,ioos:station:WAVCIS:CSI16:1,2012-02-02T14:30:00Z,29.4012,-89.0355,10.0,17.569,11111222 
WAVCIS,ioos:station:WAVCIS:CSI16:1,2012-02-02T14:45:00Z,29.4012,-89.0355,10.0,17.648,11111222 
WAVCIS,ioos:station:WAVCIS:CSI16:1,2012-02-02T15:00:00Z,29.4012,-89.0355,10.0,17.708,11111222 
WAVCIS,ioos:station:WAVCIS:CSI16:1,2012-02-02T15:15:00Z,29.4012,-89.0355,10.0,17.546,11111222 
WAVCIS,ioos:station:WAVCIS:CSI16:1,2012-02-02T15:30:00Z,29.4012,-89.0355,10.0,17.682,11111222 
WAVCIS,ioos:station:WAVCIS:CSI16:1,2012-02-02T15:45:00Z,29.4012,-89.0355,10.0,17.671,11111222 
WAVCIS,ioos:station:WAVCIS:CSI16:1,2012-02-02T16:00:00Z,29.4012,-89.0355,10.0,17.671,11111222 
WAVCIS,ioos:station:WAVCIS:CSI16:1,2012-02-02T16:15:00Z,29.4012,-89.0355,10.0,17.692,11111222 
WAVCIS,ioos:station:WAVCIS:CSI16:1,2012-02-02T16:30:00Z,29.4012,-89.0355,10.0,17.705,11111222 
WAVCIS,ioos:station:WAVCIS:CSI16:1,2012-02-02T16:45:00Z,29.4012,-89.0355,10.0,17.717,11111222 
WAVCIS,ioos:station:WAVCIS:CSI16:1,2012-02-02T17:00:00Z,29.4012,-89.0355,10.0,17.747,11111222 
WAVCIS,ioos:station:WAVCIS:CSI16:1,2012-02-02T17:15:00Z,29.4012,-89.0355,10.0,17.748,11111222 
WAVCIS,ioos:station:WAVCIS:CSI16:1,2012-02-02T17:30:00Z,29.4012,-89.0355,10.0,17.756,11111222 
WAVCIS,ioos:station:WAVCIS:CSI16:1,2012-02-02T17:45:00Z,29.4012,-89.0355,10.0,17.766,11111222 
WAVCIS,ioos:station:WAVCIS:CSI16:1,2012-02-02T18:00:00Z,29.4012,-89.0355,10.0,17.792,11111222 
WAVCIS,ioos:station:WAVCIS:CSI16:1,2012-02-02T18:15:00Z,29.4012,-89.0355,10.0,17.838,11111222 
WAVCIS,ioos:station:WAVCIS:CSI16:1,2012-02-02T18:30:00Z,29.4012,-89.0355,10.0,17.896,11111222 
WAVCIS,ioos:station:WAVCIS:CSI16:1,2012-02-02T18:45:00Z,29.4012,-89.0355,10.0,17.694,11111222 
WAVCIS,ioos:station:WAVCIS:CSI16:1,2012-02-02T19:00:00Z,29.4012,-89.0355,10.0,17.849,11111222 
WAVCIS,ioos:station:WAVCIS:CSI16:1,2012-02-02T19:15:00Z,29.4012,-89.0355,10.0,17.783,11111222 
WAVCIS,ioos:station:WAVCIS:CSI16:1,2012-02-02T19:30:00Z,29.4012,-89.0355,10.0,17.899,11111222 
WAVCIS,ioos:station:WAVCIS:CSI16:1,2012-02-02T19:45:00Z,29.4012,-89.0355,10.0,18.081,11111222 
WAVCIS,ioos:station:WAVCIS:CSI16:1,2012-02-02T20:00:00Z,29.4012,-89.0355,10.0,18.16,11111222 
WAVCIS,ioos:station:WAVCIS:CSI16:1,2012-02-02T20:15:00Z,29.4012,-89.0355,10.0,17.963,11111222 
WAVCIS,ioos:station:WAVCIS:CSI16:1,2012-02-02T20:30:00Z,29.4012,-89.0355,10.0,18.12,11111222 
WAVCIS,ioos:station:WAVCIS:CSI16:1,2012-02-02T20:45:00Z,29.4012,-89.0355,10.0,18.215,11111222 
WAVCIS,ioos:station:WAVCIS:CSI16:1,2012-02-02T21:00:00Z,29.4012,-89.0355,10.0,18.112,11111222 
WAVCIS,ioos:station:WAVCIS:CSI16:1,2012-02-02T21:15:00Z,29.4012,-89.0355,10.0,18.198,11111222 
WAVCIS,ioos:station:WAVCIS:CSI16:1,2012-02-02T21:30:00Z,29.4012,-89.0355,10.0,18.144,11111222 
WAVCIS,ioos:station:WAVCIS:CSI16:1,2012-02-02T21:45:00Z,29.4012,-89.0355,10.0,18.135,11111222 
WAVCIS,ioos:station:WAVCIS:CSI16:1,2012-02-02T22:00:00Z,29.4012,-89.0355,10.0,18.253,11111222 
WAVCIS,ioos:station:WAVCIS:CSI16:1,2012-02-02T22:15:00Z,29.4012,-89.0355,10.0,18.252,11111222 
WAVCIS,ioos:station:WAVCIS:CSI16:1,2012-02-02T22:30:00Z,29.4012,-89.0355,10.0,18.18,11111222 
WAVCIS,ioos:station:WAVCIS:CSI16:1,2012-02-02T22:45:00Z,29.4012,-89.0355,10.0,18.016,11111222 
WAVCIS,ioos:station:WAVCIS:CSI16:1,2012-02-02T23:00:00Z,29.4012,-89.0355,10.0,18.017,11111222 
WAVCIS,ioos:station:WAVCIS:CSI16:1,2012-02-02T23:15:00Z,29.4012,-89.0355,10.0,17.97,11111222 
WAVCIS,ioos:station:WAVCIS:CSI16:1,2012-02-02T23:30:00Z,29.4012,-89.0355,10.0,17.912,11111222 
WAVCIS,ioos:station:WAVCIS:CSI16:1,2012-02-02T23:45:00Z,29.4012,-89.0355,10.0,17.869,11111222 
WAVCIS,ioos:station:WAVCIS:CSI16:1,2012-02-03T00:00:00Z,29.4012,-89.0355,10.0,17.851,11111222 
WAVCIS,ioos:station:WAVCIS:CSI16:1,2012-02-03T00:15:00Z,29.4012,-89.0355,10.0,17.82,11111222 
WAVCIS,ioos:station:WAVCIS:CSI16:1,2012-02-03T00:30:00Z,29.4012,-89.0355,10.0,17.821,11111222 
WAVCIS,ioos:station:WAVCIS:CSI16:1,2012-02-03T00:45:00Z,29.4012,-89.0355,10.0,17.829,11111222 
WAVCIS,ioos:station:WAVCIS:CSI16:1,2012-02-03T01:00:00Z,29.4012,-89.0355,10.0,17.79,11111222 
WAVCIS,ioos:station:WAVCIS:CSI16:1,2012-02-03T01:15:00Z,29.4012,-89.0355,10.0,17.767,11111222 
WAVCIS,ioos:station:WAVCIS:CSI16:1,2012-02-03T01:30:00Z,29.4012,-89.0355,10.0,17.783,11111222 
WAVCIS,ioos:station:WAVCIS:CSI16:1,2012-02-03T01:45:00Z,29.4012,-89.0355,10.0,18.333,11111222 
WAVCIS,ioos:station:WAVCIS:CSI16:1,2012-02-03T02:00:00Z,29.4012,-89.0355,10.0,18.54,11111222 
WAVCIS,ioos:station:WAVCIS:CSI16:1,2012-02-03T02:15:00Z,29.4012,-89.0355,10.0,18.52,11111222 
WAVCIS,ioos:station:WAVCIS:CSI16:1,2012-02-03T02:30:00Z,29.4012,-89.0355,10.0,18.381,11111222 
WAVCIS,ioos:station:WAVCIS:CSI16:1,2012-02-03T02:45:00Z,29.4012,-89.0355,10.0,18.57,11111222 
WAVCIS,ioos:station:WAVCIS:CSI16:1,2012-02-03T03:00:00Z,29.4012,-89.0355,10.0,18.348,11111222 
WAVCIS,ioos:station:WAVCIS:CSI16:1,2012-02-03T03:15:00Z,29.4012,-89.0355,10.0,18.366,11111222 
WAVCIS,ioos:station:WAVCIS:CSI16:1,2012-02-03T03:30:00Z,29.4012,-89.0355,10.0,18.39,11111222 
WAVCIS,ioos:station:WAVCIS:CSI16:1,2012-02-03T03:45:00Z,29.4012,-89.0355,10.0,18.483,11111222 
WAVCIS,ioos:station:WAVCIS:CSI16:1,2012-02-03T04:00:00Z,29.4012,-89.0355,10.0,18.475,11111222 
WAVCIS,ioos:station:WAVCIS:CSI16:1,2012-02-03T04:15:00Z,29.4012,-89.0355,10.0,18.429,11111222 
WAVCIS,ioos:station:WAVCIS:CSI16:1,2012-02-03T04:30:00Z,29.4012,-89.0355,10.0,18.442,11111222 
WAVCIS,ioos:station:WAVCIS:CSI16:1,2012-02-03T04:45:00Z,29.4012,-89.0355,10.0,18.345,11111222 
WAVCIS,ioos:station:WAVCIS:CSI16:1,2012-02-03T05:00:00Z,29.4012,-89.0355,10.0,18.294,11111222 
WAVCIS,ioos:station:WAVCIS:CSI16:1,2012-02-03T05:15:00Z,29.4012,-89.0355,10.0,18.321,11111222 
WAVCIS,ioos:station:WAVCIS:CSI16:1,2012-02-03T05:30:00Z,29.4012,-89.0355,10.0,18.39,11111222 
WAVCIS,ioos:station:WAVCIS:CSI16:1,2012-02-03T05:45:00Z,29.4012,-89.0355,10.0,18.371,11111222 
WAVCIS,ioos:station:WAVCIS:CSI16:1,2012-02-03T06:00:00Z,29.4012,-89.0355,10.0,18.432,11111222 
WAVCIS,ioos:station:WAVCIS:CSI16:1,2012-02-03T06:15:00Z,29.4012,-89.0355,10.0,18.351,11111222 
WAVCIS,ioos:station:WAVCIS:CSI16:1,2012-02-03T06:30:00Z,29.4012,-89.0355,10.0,18.348,11111222 
WAVCIS,ioos:station:WAVCIS:CSI16:1,2012-02-03T06:45:00Z,29.4012,-89.0355,10.0,18.381,11111222 
WAVCIS,ioos:station:WAVCIS:CSI16:1,2012-02-03T07:00:00Z,29.4012,-89.0355,10.0,18.243,11111222 
WAVCIS,ioos:station:WAVCIS:CSI16:1,2012-02-03T07:15:00Z,29.4012,-89.0355,10.0,18.116,11111222 
WAVCIS,ioos:station:WAVCIS:CSI16:1,2012-02-03T07:30:00Z,29.4012,-89.0355,10.0,18.094,11111222 
WAVCIS,ioos:station:WAVCIS:CSI16:1,2012-02-03T07:45:00Z,29.4012,-89.0355,10.0,18.077,11111222 
WAVCIS,ioos:station:WAVCIS:CSI16:1,2012-02-03T08:00:00Z,29.4012,-89.0355,10.0,18.071,11111222 
WAVCIS,ioos:station:WAVCIS:CSI16:1,2012-02-03T08:15:00Z,29.4012,-89.0355,10.0,17.852,11111222 
WAVCIS,ioos:station:WAVCIS:CSI16:1,2012-02-03T08:30:00Z,29.4012,-89.0355,10.0,17.542,11111222 
WAVCIS,ioos:station:WAVCIS:CSI16:1,2012-02-03T08:45:00Z,29.4012,-89.0355,10.0,17.568,11111222 
WAVCIS,ioos:station:WAVCIS:CSI16:1,2012-02-03T09:00:00Z,29.4012,-89.0355,10.0,17.6,11111222 
WAVCIS,ioos:station:WAVCIS:CSI16:1,2012-02-03T09:15:00Z,29.4012,-89.0355,10.0,17.651,11111222 
WAVCIS,ioos:station:WAVCIS:CSI16:1,2012-02-03T09:30:00Z,29.4012,-89.0355,10.0,17.66,11111222 
WAVCIS,ioos:station:WAVCIS:CSI16:1,2012-02-03T09:45:00Z,29.4012,-89.0355,10.0,17.695,11111222 
WAVCIS,ioos:station:WAVCIS:CSI16:1,2012-02-03T10:00:00Z,29.4012,-89.0355,10.0,17.716,11111222 
WAVCIS,ioos:station:WAVCIS:CSI16:1,2012-02-03T10:15:00Z,29.4012,-89.0355,10.0,17.744,11111222 
WAVCIS,ioos:station:WAVCIS:CSI16:1,2012-02-03T10:30:00Z,29.4012,-89.0355,10.0,17.767,11111222 
WAVCIS,ioos:station:WAVCIS:CSI16:1,2012-02-03T10:45:00Z,29.4012,-89.0355,10.0,17.782,11111222 
WAVCIS,ioos:station:WAVCIS:CSI16:1,2012-02-03T11:00:00Z,29.4012,-89.0355,10.0,17.786,11111222 
WAVCIS,ioos:station:WAVCIS:CSI16:1,2012-02-03T11:15:00Z,29.4012,-89.0355,10.0,17.795,11111222 
WAVCIS,ioos:station:WAVCIS:CSI16:1,2012-02-03T11:30:00Z,29.4012,-89.0355,10.0,17.799,11111222 
WAVCIS,ioos:station:WAVCIS:CSI16:1,2012-02-03T11:45:00Z,29.4012,-89.0355,10.0,17.957,11111222 
WAVCIS,ioos:station:WAVCIS:CSI16:1,2012-02-03T12:00:00Z,29.4012,-89.0355,10.0,18.101,11111222 
WAVCIS,ioos:station:WAVCIS:CSI16:1,2012-02-03T12:15:00Z,29.4012,-89.0355,10.0,18.194,11111222 
WAVCIS,ioos:station:WAVCIS:CSI16:1,2012-02-03T12:30:00Z,29.4012,-89.0355,10.0,18.21,11111222 
WAVCIS,ioos:station:WAVCIS:CSI16:1,2012-02-03T12:45:00Z,29.4012,-89.0355,10.0,18.205,11111222 
WAVCIS,ioos:station:WAVCIS:CSI16:1,2012-02-03T13:00:00Z,29.4012,-89.0355,10.0,18.247,11111222 
WAVCIS,ioos:station:WAVCIS:CSI16:1,2012-02-03T13:15:00Z,29.4012,-89.0355,10.0,18.213,11111222 
WAVCIS,ioos:station:WAVCIS:CSI16:1,2012-02-03T13:30:00Z,29.4012,-89.0355,10.0,18.123,11111222 
WAVCIS,ioos:station:WAVCIS:CSI16:1,2012-02-03T13:45:00Z,29.4012,-89.0355,10.0,18.17,11111222 
WAVCIS,ioos:station:WAVCIS:CSI16:1,2012-02-03T14:00:00Z,29.4012,-89.0355,10.0,18.205,11111222 
WAVCIS,ioos:station:WAVCIS:CSI16:1,2012-02-03T14:15:00Z,29.4012,-89.0355,10.0,18.219,11111222 
WAVCIS,ioos:station:WAVCIS:CSI16:1,2012-02-03T14:30:00Z,29.4012,-89.0355,10.0,18.136,11111222 
WAVCIS,ioos:station:WAVCIS:CSI16:1,2012-02-03T14:45:00Z,29.4012,-89.0355,10.0,18.441,11111222 